Probability
0 3 32 35 32 29 23 26 23 26 23 26 23 19 29 23 29 32 32 29 35 29 26 19 19 23 23 26 19 13 16 13 13 13 6 10 13 10 6 6 6 6 6
0 6 35 39 32 32 29 23 23 26 26 23 23 16 19 23 26 23 26 26 26 23 26 23 23 19 19 16 13 16 10 10 6 6 6 6 13 10 6 10 10 6 10
3 6 23 35 35 26 26 26 26 23 26 23 19 19 19 19 19 16 16 19 23 23 23 23 19 16 16 13 6 10 6 6 3 3 0 0 0 13 6 6 10 10 10
3 6 6 32 32 29 29 26 23 26 26 19 16 19 16 13 16 16 16 19 19 26 26 23 19 16 16 10 10 10 6 3 3 0 0 0 0 6 3 3 3 3 6
6 6 6 26 32 29 26 29 29 23 26 19 16 16 16 10 13 13 16 19 26 23 23 26 19 19 10 10 10 10 6 3 0 0 0 0 0 3 6 3 3 6 6
6 6 6 23 32 32 32 29 32 26 26 19 19 16 13 10 10 16 13 16 19 19 19 19 19 13 13 10 10 6 6 6 0 0 0 0 0 3 6 0 3 6 6
3 3 6 19 29 29 32 29 29 26 26 23 16 10 13 10 10 16 16 19 19 16 16 16 13 10 3 10 6 6 6 3 0 0 0 0 0 3 3 0 0 3 3
3 3 6 16 19 26 26 29 29 23 26 23 19 13 16 16 13 13 16 16 13 13 16 10 10 10 10 3 3 10 6 0 0 0 0 0 0 3 3 0 0 0 0
0 0 0 0 10 16 19 23 26 23 23 23 19 16 16 19 13 13 13 16 16 19 19 10 10 6 6 6 3 3 0 0 0 0 0 0 0 0 3 0 0 0 0
0 0 0 0 0 0 0 10 13 13 19 13 10 10 3 6 6 10 10 13 16 19 19 6 6 3 3 3 3 0 0 0 0 0 0 0 0 0 0 0 0 3 3
0 0 0 0 0 0 0 0 0 0 3 6 3 3 3 3 0 3 3 6 13 16 19 6 3 3 0 0 0 0 0 0 0 0 0 0 0 0 0 0 0 0 0
0 0 0 0 0 0 0 0 0 0 0 3 3 3 0 0 0 0 0 0 3 3 3 3 0 0 0 0 0 0 0 0 0 0 0 0 0 0 0 0 3 0 0
0 0 0 0 0 0 0 0 0 0 0 0 0 0 0 0 0 0 0 0 0 0 0 0 0 0 0 0 0 0 0 0 0 0 0 0 0 0 3 3 6 3 0
0 0 0 0 0 0 0 0 0 0 0 0 0 0 0 0 0 0 0 0 0 0 0 0 0 0 0 0 0 0 0 0 0 0 0 0 0 0 6 0 0 3 0
0 0 0 0 0 0 0 0 0 0 0 0 0 0 0 0 0 0 0 0 0 0 0 0 0 0 0 0 0 0 0 0 0 0 0 0 0 0 6 0 0 3 0
0 0 0 0 0 0 0 0 0 0 0 0 0 0 0 0 0 0 0 0 0 0 0 0 0 0 0 0 0 0 0 0 0 0 0 0 0 0 0 0 0 0 0
0 0 0 0 0 0 0 0 0 0 0 0 0 0 0 0 0 0 0 0 0 0 0 0 0 0 0 0 0 0 0 0 0 0 0 0 0 0 0 0 0 0 0
0 0 0 0 0 0 0 0 0 0 0 0 0 0 0 0 0 0 0 0 0 0 0 0 0 0 0 0 0 0 0 0 0 0 0 0 0 0 0 0 0 0 0
0 0 0 0 0 0 0 0 0 0 0 0 0 0 0 0 0 0 0 0 0 0 0 0 0 0 0 0 0 0 0 0 0 0 0 0 0 0 0 0 0 0 0
0 0 0 0 0 0 0 0 0 0 0 0 0 0 0 0 0 0 0 0 0 0 0 0 0 0 0 0 0 0 0 0 0 0 0 0 0 0 0 0 0 0 0
0 0 0 0 0 0 0 0 0 0 0 0 0 0 0 0 0 0 0 0 0 0 0 0 0 0 0 0 0 0 0 0 0 0 0 0 0 0 0 0 0 0 0
0 0 0 0 0 0 0 0 0 0 0 0 0 0 0 0 0 0 0 0 0 0 0 0 0 0 0 0 0 0 0 0 0 0 0 0 0 0 0 0 0 0 0
0 0 0 0 0 0 0 0 0 0 0 0 0 0 0 0 0 0 0 0 0 0 0 0 0 0 0 0 0 0 0 0 0 0 0 0 0 0 0 0 0 0 0
0 0 0 0 0 0 0 0 0 0 0 0 0 0 0 0 0 0 0 0 0 0 0 0 0 0 0 0 0 0 0 0 0 0 0 0 0 0 0 0 0 0 0
0 0 0 0 0 0 0 0 0 0 0 0 0 0 0 0 0 0 0 0 0 0 0 0 0 0 0 0 0 0 0 0 0 0 0 0 0 0 0 0 0 0 0
0 0 0 0 0 0 0 0 0 0 0 0 0 0 0 0 0 0 0 0 0 0 0 0 0 0 0 0 0 0 0 0 0 0 0 0 0 0 0 0 0 0 0
Height
5834 5835 5836 5837 5838 5839 5840 5841 5842 5843 5844 5845 5846 5846 5847 5848 5849 5850 5851 5852 5852 5853 5854 5855 5856 5857 5858 5858 5859 5860 5860 5861 5862 5862 5863 5863 5863 5864 5864 5864 5865 5865 5865
5831 5832 5833 5834 5835 5836 5837 5838 5839 5840 5841 5842 5843 5844 5845 5846 5847 5848 5849 5850 5851 5852 5853 5854 5855 5856 5856 5857 5858 5859 5859 5860 5861 5861 5862 5862 5863 5863 5863 5864 5864 5864 5864
5826 5828 5829 5830 5832 5833 5834 5835 5836 5838 5839 5840 5841 5842 5843 5844 5845 5846 5847 5848 5849 5850 5851 5852 5853 5854 5855 5856 5857 5857 5858 5859 5860 5860 5861 5861 5862 5862 5862 5863 5863 5863 5863
5822 5823 5825 5826 5827 5829 5830 5832 5833 5834 5835 5837 5838 5839 5840 5841 5843 5844 5845 5846 5847 5848 5849 5851 5852 5853 5854 5854 5855 5856 5857 5858 5858 5859 5860 5860 5860 5861 5861 5861 5862 5862 5862
5817 5818 5820 5821 5822 5824 5826 5827 5829 5830 5832 5833 5835 5836 5837 5838 5840 5841 5842 5843 5845 5846 5847 5848 5850 5851 5852 5853 5854 5854 5855 5856 5857 5857 5858 5859 5859 5860 5860 5860 5860 5861 5861
5811 5813 5814 5816 5817 5819 5821 5823 5824 5826 5828 5829 5831 5832 5834 5835 5836 5838 5839 5840 5842 5843 5844 5846 5847 5848 5849 5850 5851 5852 5853 5854 5855 5856 5856 5857 5857 5858 5858 5859 5859 5859 5859
5805 5807 5809 5810 5812 5813 5815 5818 5819 5821 5823 5825 5827 5828 5830 5831 5833 5834 5836 5837 5838 5840 5841 5842 5844 5846 5847 5848 5849 5850 5851 5852 5853 5853 5854 5855 5855 5856 5856 5857 5857 5857 5857
5799 5800 5802 5804 5806 5808 5810 5812 5814 5815 5818 5820 5822 5824 5826 5827 5829 5830 5832 5833 5835 5836 5838 5839 5841 5842 5844 5845 5846 5847 5848 5849 5850 5851 5852 5852 5853 5854 5854 5855 5855 5855 5855
5792 5793 5795 5797 5799 5801 5804 5806 5808 5810 5812 5814 5817 5819 5821 5823 5824 5826 5828 5829 5831 5833 5834 5835 5837 5839 5840 5842 5843 5844 5845 5846 5847 5848 5849 5850 5850 5851 5852 5852 5852 5853 5853
5785 5786 5787 5789 5791 5794 5797 5799 5802 5804 5806 5809 5811 5813 5815 5818 5819 5821 5823 5825 5827 5829 5830 5832 5833 5835 5836 5838 5839 5840 5842 5843 5844 5845 5846 5847 5847 5848 5849 5849 5850 5850 5850
5778 5779 5780 5782 5784 5787 5790 5792 5795 5798 5800 5802 5805 5807 5810 5812 5814 5816 5819 5821 5822 5824 5826 5827 5829 5830 5832 5834 5835 5836 5838 5839 5841 5842 5843 5843 5844 5845 5845 5846 5847 5847 5848
5770 5772 5774 5776 5778 5779 5782 5785 5788 5791 5794 5796 5799 5801 5804 5806 5809 5811 5813 5815 5817 5819 5821 5823 5824 5826 5828 5829 5831 5832 5834 5835 5837 5838 5839 5840 5841 5841 5842 5843 5843 5844 5844
5762 5765 5767 5769 5771 5773 5775 5778 5780 5783 5786 5789 5792 5795 5797 5800 5802 5805 5807 5810 5812 5814 5816 5818 5819 5821 5823 5824 5826 5827 5829 5831 5832 5833 5834 5836 5837 5838 5838 5839 5840 5840 5840
5756 5757 5760 5762 5764 5766 5768 5770 5773 5776 5779 5782 5785 5788 5790 5793 5796 5799 5801 5803 5806 5808 5810 5812 5814 5816 5818 5819 5821 5822 5824 5825 5827 5828 5830 5831 5832 5833 5834 5835 5835 5836 5836
5749 5750 5753 5755 5757 5759 5761 5763 5765 5768 5771 5774 5777 5780 5783 5786 5789 5792 5794 5797 5799 5802 5804 5806 5808 5810 5812 5813 5815 5817 5818 5820 5821 5823 5824 5826 5827 5828 5829 5830 5830 5831 5831
5742 5744 5746 5748 5750 5751 5753 5755 5758 5761 5763 5767 5770 5772 5775 5778 5781 5784 5787 5790 5792 5794 5797 5799 5801 5803 5805 5807 5808 5810 5812 5814 5815 5817 5819 5820 5821 5822 5823 5824 5825 5825 5826
5734 5736 5738 5740 5742 5743 5745 5747 5750 5753 5755 5759 5762 5765 5767 5770 5773 5776 5779 5782 5784 5786 5789 5791 5793 5796 5797 5799 5801 5803 5805 5807 5809 5811 5812 5814 5815 5816 5818 5818 5819 5820 5820
5727 5729 5730 5732 5734 5736 5737 5739 5741 5744 5747 5750 5753 5756 5759 5762 5765 5768 5771 5773 5776 5778 5780 5783 5785 5788 5789 5791 5793 5795 5797 5800 5802 5804 5805 5807 5809 5810 5811 5812 5813 5813 5814
5720 5721 5723 5724 5726 5728 5730 5731 5733 5736 5739 5741 5744 5747 5750 5753 5756 5759 5762 5765 5767 5769 5772 5774 5776 5779 5781 5783 5785 5787 5789 5792 5794 5796 5798 5800 5801 5803 5804 5805 5806 5806 5807
5713 5714 5715 5716 5718 5720 5722 5723 5725 5728 5730 5733 5736 5738 5741 5744 5747 5750 5753 5755 5757 5760 5762 5764 5767 5770 5772 5774 5776 5779 5781 5784 5786 5788 5790 5792 5793 5795 5796 5797 5798 5799 5799
5706 5707 5708 5709 5711 5712 5714 5716 5718 5720 5722 5724 5727 5730 5732 5735 5737 5740 5743 5746 5748 5750 5752 5754 5757 5760 5762 5765 5767 5770 5773 5775 5777 5779 5781 5783 5785 5786 5787 5789 5790 5790 5791
5700 5700 5702 5702 5703 5705 5707 5708 5710 5712 5714 5716 5718 5720 5723 5726 5729 5731 5733 5736 5738 5741 5742 5744 5747 5750 5753 5755 5758 5761 5763 5766 5768 5770 5772 5774 5775 5777 5778 5780 5780 5781 5782
5694 5694 5695 5696 5697 5698 5699 5700 5701 5703 5705 5707 5709 5711 5714 5717 5720 5722 5724 5727 5729 5732 5734 5735 5738 5740 5743 5745 5748 5751 5754 5757 5759 5761 5762 5764 5766 5768 5769 5770 5771 5772 5773
5688 5688 5689 5689 5690 5691 5691 5692 5694 5695 5697 5699 5700 5703 5705 5708 5711 5714 5716 5718 5721 5723 5725 5727 5730 5732 5734 5736 5739 5741 5744 5747 5749 5751 5753 5755 5756 5758 5760 5761 5762 5762 5763
5682 5682 5682 5682 5683 5684 5684 5685 5686 5688 5689 5691 5693 5695 5698 5700 5703 5705 5707 5710 5712 5714 5716 5718 5721 5723 5725 5728 5730 5732 5734 5736 5739 5741 5743 5746 5747 5748 5750 5751 5752 5752 5753
5675 5675 5675 5675 5676 5676 5677 5678 5679 5681 5682 5684 5685 5687 5689 5691 5694 5696 5698 5701 5703 5705 5708 5710 5712 5714 5716 5718 5721 5723 5725 5727 5729 5731 5733 5735 5736 5738 5739 5740 5741 5742 5742
Wind_Speed
17 17 16 16 15 15 14 14 12 12 11 10 9 9 8 8 7 7 7 6 6 6 6 6 5 5 5 5 5 4 4 4 4 4 3 3 3 3 3 3 3 3 2
18 18 18 18 18 17 16 16 15 14 13 12 11 10 10 9 8 8 8 7 7 7 7 6 6 5 5 5 5 5 5 4 4 4 4 3 3 3 3 3 3 3 3
21 20 20 19 19 19 18 18 17 17 16 14 13 12 11 11 10 10 9 9 9 8 8 7 7 6 6 6 6 5 5 5 4 4 4 4 4 3 3 3 3 4 4
23 23 22 21 21 21 20 19 19 18 18 17 15 14 13 12 12 11 11 10 10 10 10 9 8 7 7 7 6 6 6 6 5 5 5 5 4 4 4 4 4 4 5
24 24 24 23 23 22 22 21 20 20 19 19 17 16 15 14 14 13 12 12 12 11 11 11 10 9 9 9 8 8 7 7 7 6 6 6 6 5 5 5 5 6 6
25 25 25 25 25 24 24 23 22 21 21 20 20 18 17 16 15 15 14 14 13 13 13 12 12 11 11 10 10 9 9 8 8 8 8 8 7 7 7 7 7 7 7
26 26 26 26 26 26 25 25 24 23 23 22 21 20 19 18 17 17 16 15 15 14 14 14 14 13 13 12 12 11 11 10 9 9 9 9 9 9 8 8 8 8 8
27 27 27 27 28 27 27 27 26 25 24 24 23 22 21 20 19 18 17 17 16 16 15 15 15 15 15 14 14 13 13 12 11 11 11 11 11 10 10 10 9 9 9
27 27 28 29 29 29 29 28 28 27 26 26 25 24 23 22 21 20 19 18 18 17 16 16 16 16 16 16 16 15 15 14 13 13 13 13 13 12 12 12 11 10 10
27 27 28 30 30 31 30 30 30 29 28 27 27 26 25 24 23 22 21 21 20 19 18 18 17 17 18 18 18 18 17 16 15 15 14 14 14 14 14 13 13 12 12
27 27 28 29 29 30 31 30 31 31 29 28 29 28 27 26 25 24 23 22 22 21 20 20 19 19 19 19 19 19 19 18 17 17 16 16 16 15 15 15 14 14 14
28 28 29 29 29 30 31 32 31 32 32 30 30 30 28 28 27 26 25 24 24 23 22 22 21 21 21 21 20 20 20 19 18 18 18 17 17 17 16 16 16 16 16
30 29 30 30 30 31 31 33 32 33 33 32 31 30 30 29 29 28 27 26 26 25 25 24 23 22 22 22 22 22 21 21 20 19 19 19 19 18 18 18 18 18 18
30 30 30 30 30 31 32 33 33 34 33 33 33 32 31 31 31 30 29 28 28 27 27 26 26 25 24 24 24 24 23 23 22 22 21 21 21 21 20 20 20 20 20
31 32 30 31 32 32 33 33 33 34 35 34 34 34 34 33 32 32 31 31 30 29 29 28 28 27 27 26 26 26 25 25 25 24 24 23 23 23 23 22 22 22 22
31 32 32 32 32 32 33 33 34 35 36 35 35 35 35 35 35 34 33 32 32 31 31 31 31 30 30 29 28 28 27 27 27 26 26 26 26 25 25 24 24 24 24
30 31 32 32 32 32 32 32 33 35 37 37 37 37 36 36 36 36 35 35 34 33 33 34 33 32 32 31 31 30 29 29 29 29 28 28 28 28 28 27 27 27 26
28 30 31 32 33 33 32 32 33 36 37 38 38 38 37 37 37 37 37 37 36 36 35 35 35 34 34 34 33 33 32 32 31 31 31 31 31 30 30 30 30 29 29
27 28 30 31 33 33 33 32 33 35 37 38 38 37 37 37 38 38 38 39 38 38 37 37 37 36 36 36 36 36 35 34 34 33 33 33 33 33 33 33 33 32 32
26 27 28 29 31 32 33 32 33 34 36 37 38 38 37 37 37 39 40 40 40 40 39 39 38 38 37 37 37 37 37 37 37 36 35 36 36 36 36 36 36 36 35
27 27 28 29 30 30 32 32 33 34 35 36 37 38 37 36 36 36 38 40 40 40 41 40 40 40 39 38 39 40 40 39 39 38 37 38 38 38 39 38 38 38 38
26 27 28 28 30 30 30 32 33 35 35 35 36 38 37 37 36 35 36 38 39 38 39 40 40 40 41 40 40 40 41 41 40 40 39 39 39 40 40 41 41 41 40
26 26 27 28 29 30 30 31 32 33 34 34 35 36 36 36 36 37 37 37 38 38 38 39 40 41 41 41 41 41 41 41 40 41 41 41 40 40 40 41 42 42 41
26 26 27 28 30 30 31 31 32 32 33 33 33 35 36 36 36 37 37 38 38 37 38 39 40 40 41 42 41 41 42 43 42 42 41 41 41 41 41 42 43 44 43
26 27 27 28 30 30 30 31 31 31 31 32 32 33 34 36 37 38 38 38 38 38 38 39 40 40 41 42 41 41 41 42 42 43 42 42 41 42 43 44 44 45 45
27 27 27 27 29 30 30 30 31 31 31 31 32 34 34 35 36 38 38 39 38 38 38 38 39 40 40 41 41 41 42 42 42 42 42 41 41 42 43 44 44 45 46
Wind_Direction
251 250 248 247 247 247 247 248 245 242 242 242 239 238 238 236 236 234 232 227 220 216 213 215 221 228 228 231 236 242 235 232 233 236 239 245 248 252 257 261 265 270 269
251 251 251 248 246 246 246 246 245 244 243 242 241 240 238 237 237 236 234 231 226 221 218 220 225 232 230 236 239 243 238 238 238 238 240 247 254 256 257 259 263 274 276
251 251 251 251 248 246 246 246 245 245 244 243 241 241 240 239 238 236 236 235 232 227 222 222 225 232 236 237 237 241 243 248 248 244 245 252 258 260 261 263 270 280 284
251 251 249 249 248 246 246 247 246 244 244 243 241 240 241 241 241 240 238 235 233 230 230 229 229 235 240 238 238 241 245 248 251 249 250 252 254 259 264 270 277 282 285
250 249 248 247 246 245 243 244 245 244 243 243 241 240 241 241 240 240 239 236 234 233 234 233 234 238 241 240 240 242 246 251 254 256 257 258 260 264 268 273 277 281 283
250 249 248 246 244 244 243 243 243 242 242 242 242 241 240 241 240 239 240 239 237 236 235 236 239 241 242 242 241 243 245 250 256 259 261 262 264 267 269 272 277 278 278
250 249 249 246 244 243 242 241 242 241 241 241 242 242 241 241 240 240 240 240 240 240 240 239 240 242 243 244 244 246 246 251 257 260 261 263 264 266 268 271 275 276 277
250 249 249 247 244 242 241 240 240 241 240 240 241 242 242 241 241 239 239 240 240 241 243 244 242 242 243 245 247 249 250 253 257 261 262 261 262 264 266 268 272 275 276
250 249 247 246 243 242 241 240 240 240 240 239 240 242 242 241 241 240 240 239 240 242 243 244 244 244 245 247 249 250 252 255 257 260 262 262 262 264 265 267 269 272 276
250 248 246 245 243 241 241 240 240 240 241 240 240 240 240 240 240 240 240 240 241 243 244 245 245 246 247 248 249 250 252 255 257 259 262 264 264 264 265 267 267 270 274
250 247 244 243 241 241 240 238 239 239 240 241 239 239 239 240 240 240 240 241 242 243 245 246 247 247 247 248 249 251 253 254 256 258 261 263 263 263 265 266 267 268 272
248 246 243 242 242 241 239 237 237 239 239 240 240 239 239 239 239 240 240 242 242 243 244 246 247 247 247 248 249 251 252 254 256 257 259 262 263 264 265 265 266 268 270
248 245 242 241 242 242 240 238 237 238 239 239 239 240 240 240 240 240 240 241 242 242 243 245 247 248 248 249 249 250 251 252 254 256 258 260 262 263 265 266 266 268 269
249 246 244 242 242 243 243 241 238 238 237 238 239 240 240 239 240 240 240 241 242 242 243 245 247 248 248 249 250 249 250 251 253 255 257 259 261 262 263 266 267 268 270
250 247 246 244 243 243 244 244 241 239 238 237 238 239 240 240 240 241 241 241 242 242 244 245 247 249 249 251 250 250 250 251 252 253 256 258 260 262 262 264 267 269 270
251 248 247 246 246 246 244 244 243 242 240 238 238 240 240 241 240 241 241 241 242 243 243 245 247 249 249 252 251 251 250 250 253 254 255 257 259 261 263 264 267 269 270
253 249 247 248 248 248 246 244 242 242 241 239 239 240 241 242 241 242 242 241 243 244 244 245 247 249 250 251 251 251 251 251 252 254 255 256 258 260 262 263 265 267 269
254 249 249 250 250 248 247 245 243 242 242 240 239 241 243 243 242 242 243 243 244 245 245 246 248 249 250 251 250 250 251 252 252 254 255 256 257 259 261 263 264 267 268
255 251 251 252 249 247 246 245 244 243 244 243 241 242 243 244 243 243 244 244 245 246 245 246 248 248 250 250 250 250 251 253 253 254 255 256 257 258 261 263 265 267 268
257 256 254 253 249 247 246 244 245 246 245 244 243 244 245 245 246 246 246 247 247 247 246 246 246 248 250 250 250 250 251 253 254 255 256 256 257 259 261 263 265 267 269
260 259 255 252 251 250 248 246 246 247 247 246 246 247 246 246 247 246 246 247 248 248 247 246 245 246 248 248 249 250 251 253 254 255 255 257 258 259 261 263 265 266 268
260 259 256 255 254 253 250 248 248 248 248 248 248 248 247 246 247 245 245 247 247 249 248 248 248 246 247 248 249 251 251 253 254 254 255 258 259 260 262 264 265 266 267
260 260 258 257 256 255 253 251 250 249 249 249 249 247 245 245 246 246 247 248 249 249 250 250 250 249 250 251 251 252 251 251 252 253 255 258 259 260 262 264 266 267 267
262 262 259 259 259 259 258 255 252 251 250 249 249 248 247 248 248 247 248 249 250 251 251 251 251 251 252 252 253 253 253 253 253 253 255 256 258 260 263 265 267 267 267
264 261 261 261 261 260 258 255 253 251 249 250 251 251 251 250 247 246 248 249 251 253 253 253 252 252 253 254 254 254 254 255 256 255 256 258 260 260 262 264 266 268 268
268 264 263 264 262 260 258 255 253 252 250 251 252 253 253 252 249 248 249 250 252 253 253 252 253 253 253 254 254 254 255 257 258 258 258 260 262 262 263 265 266 268 269